TimeHST,TemperatureF,Dew PointF,Humidity,Sea Level PressureIn,VisibilityMPH,Wind Direction,Wind SpeedMPH,Gust SpeedMPH,PrecipitationIn,Events,Conditions,WindDirDegrees,DateUTC
12:53 AM,68.0,64.0,87,29.94,10.0,SW,4.6,-,N/A,,Mostly Cloudy,230,2013-11-12 10:53:00
1:53 AM,68.0,64.0,87,29.93,10.0,SW,4.6,-,N/A,,Mostly Cloudy,230,2013-11-12 11:53:00
2:53 AM,68.0,64.0,87,29.92,10.0,SW,4.6,-,N/A,,Mostly Cloudy,230,2013-11-12 12:53:00
3:53 AM,68.0,64.0,87,29.91,10.0,SW,4.6,-,N/A,,Overcast,230,2013-11-12 13:53:00
4:53 AM,69.1,64.0,84,29.92,10.0,WSW,3.5,-,N/A,,Overcast,240,2013-11-12 14:53:00
5:53 AM,68.0,64.0,87,29.94,10.0,SW,4.6,-,N/A,,Overcast,230,2013-11-12 15:53:00
6:53 AM,69.1,63.0,81,29.97,10.0,SW,5.8,-,N/A,,Mostly Cloudy,230,2013-11-12 16:53:00
7:53 AM,71.1,64.0,78,29.99,10.0,SW,4.6,-,N/A,,Mostly Cloudy,230,2013-11-12 17:53:00
8:53 AM,75.9,64.9,69,30.01,10.0,West,5.8,-,N/A,,Mostly Cloudy,280,2013-11-12 18:53:00
9:53 AM,78.1,62.1,58,30.00,10.0,North,6.9,-,N/A,,Mostly Cloudy,360,2013-11-12 19:53:00
10:53 AM,78.1,61.0,56,29.98,10.0,North,5.8,-,N/A,,Overcast,360,2013-11-12 20:53:00
11:53 AM,77.0,62.1,60,29.96,10.0,North,4.6,-,N/A,,Overcast,10,2013-11-12 21:53:00
12:53 PM,78.1,63.0,60,29.94,10.0,NNE,3.5,-,N/A,,Overcast,20,2013-11-12 22:53:00
1:53 PM,78.1,63.0,60,29.92,10.0,NNE,5.8,-,N/A,,Overcast,20,2013-11-12 23:53:00
2:53 PM,77.0,63.0,62,29.92,10.0,North,4.6,-,N/A,,Overcast,10,2013-11-13 00:53:00
3:53 PM,75.9,62.1,62,29.93,10.0,North,4.6,-,N/A,,Overcast,360,2013-11-13 01:53:00
4:53 PM,75.9,62.1,62,29.94,10.0,Calm,Calm,-,N/A,,Overcast,0,2013-11-13 02:53:00
5:53 PM,73.9,64.9,73,29.95,10.0,NW,3.5,-,N/A,,Overcast,310,2013-11-13 03:53:00
6:53 PM,73.0,64.0,73,29.96,10.0,West,5.8,-,N/A,,Overcast,280,2013-11-13 04:53:00
7:53 PM,71.1,64.9,81,29.99,10.0,SW,3.5,-,N/A,,Partly Cloudy,220,2013-11-13 05:53:00
8:53 PM,70.0,64.9,84,30.00,10.0,WSW,5.8,-,N/A,,Partly Cloudy,240,2013-11-13 06:53:00
9:53 PM,69.1,64.9,87,29.99,10.0,SW,4.6,-,N/A,,Clear,220,2013-11-13 07:53:00
10:53 PM,70.0,64.0,81,29.98,10.0,Calm,Calm,-,N/A,,Mostly Cloudy,0,2013-11-13 08:53:00
11:53 PM,71.1,64.0,78,29.98,10.0,South,3.5,-,N/A,,Overcast,190,2013-11-13 09:53:00